Retour au catalogue

EUTE 28B

EUTE W2M

ActifCommunicationsGEO
NORAD 33460·PAYLOAD·🇪🇺 EU

Lancé Dec 20, 2008 depuis Guiana Space Centre

Loading…

TLE

FraisSource: Space-Track

Époque: Sep 14, 2026, 10:57 UTC

1 33460U 08065B   26257.45630464 -.00000176  00000-0  00000-0 0  9994
2 33460   5.5557  73.2748 0000783 110.2447  94.3517  0.98762687 64678

Suivez EUTE 28B en temps réel avec AllMySat

Download on the App Store